#timestamp,LO_Frequency,Hit,StdDev 
1560373215.1,286046999.1,N
1560373235.9,286046998.1,N
1560373255.7,286046999.3,N
1560373275.5,286046998.9,N
1560373295.3,286046999.0,N
1560373315.2,286046998.2,N
1560373335.0,286046998.7,N
1560373335.9,286046998.7,N
1560373355.7,286046999.0,N
1560373375.6,286046996.8,N
1560373395.4,286046999.5,N
1560373415.2,286046999.4,N
1560373435.1,286046996.5,N
1560373436.0,286046996.5,N
1560373455.8,286046996.9,N
1560373475.6,286046999.6,N
1560373495.5,286046997.2,N
1560373515.3,286046996.6,N
1560373535.1,286047000.9,N
1560373555.9,286046998.4,N
1560373575.7,286047000.1,N
1560373595.5,286047000.0,N
1560373615.3,286046999.9,N
1560373635.2,286047000.1,N
1560373655.9,286046999.9,N
1560373675.7,286047000.6,N
1560373695.6,286046998.1,N
1560373715.4,286046999.9,N
1560373735.2,286047001.5,N
1560373755.1,286047002.0,N
1560373756.0,286047002.0,N
1560373775.8,286047002.0,N
1560373795.6,286047001.7,N
1560373815.5,286047001.3,N
1560373835.3,286047004.4,N
1560373855.1,286047000.1,N
1560373875.8,286046999.8,N
1560373895.7,286047000.5,N
1560373915.5,286046998.6,N
1560373935.3,286046998.9,N
1560373955.2,286046999.7,N
1560373975.9,286047000.1,N
1560373995.7,286047003.8,N
1560374015.6,286047005.9,Y
1560374035.4,286047003.0,P
1560374055.2,286047004.5,P
1560374075.1,286047008.6,P
1560374076.0,286047008.6,N
1560374095.8,286047009.5,N
1560374115.6,286047011.6,Y
1560374135.5,286047005.5,P
1560374155.3,286047003.1,P
1560374175.1,286047005.7,P
1560374195.9,286047003.7,Y
1560374215.7,286046998.8,P
1560374235.5,286046998.7,N
1560374255.4,286046998.9,N
1560374275.2,286047001.1,N
1560374295.0,286047001.1,N
1560374295.9,286047001.1,N
1560374315.8,286047001.2,N
1560374335.6,286047000.8,N
1560374355.4,286046998.1,N
1560374375.2,286047002.8,N
1560374395.1,286047002.6,N
1560374396.0,286047002.6,N
1560374415.8,286046999.7,N
1560374435.6,286047002.8,N
1560374455.5,286047000.2,N
1560374475.3,286047000.0,N
1560374495.1,286047000.6,N
1560374515.9,286047000.5,N
1560374535.7,286047001.2,N
1560374555.5,286047001.1,N
1560374575.4,286047002.1,N
1560374595.2,286047003.9,N
1560374615.0,286047003.8,N
1560374615.9,286047003.8,N
1560374635.7,286047003.7,N
1560374655.6,286047004.8,N
1560374675.4,286047010.6,Y
1560374695.2,286047008.6,P
1560374715.1,286047008.2,N
1560374716.0,286047008.2,N
1560374735.8,286047007.7,N
1560374755.7,286047008.6,Y
1560374775.5,286047000.0,P
1560374795.3,286047000.5,N
1560374815.1,286047000.3,N
1560374835.9,286047000.0,N
1560374855.7,286046998.5,N
1560374875.5,286046998.7,N
1560374895.4,286046998.4,N
1560374915.2,286046998.4,N
1560374935.0,286046998.4,N
1560374935.9,286046998.4,N
1560374955.8,286046999.4,N
1560374975.6,286046996.9,N
1560374995.4,286046997.1,N
1560375015.2,286046997.6,N
1560375035.1,286046995.6,N
1560375036.0,286046995.6,N
1560375055.8,286046996.3,N
1560375075.6,286046993.3,N
1560375095.5,286046996.1,N
1560375115.3,286046996.4,N
1560375135.1,286046997.6,N
1560375155.9,286046998.4,N
1560375175.7,286046999.1,N
1560375195.5,286046999.4,N
1560375215.4,286046998.8,N
1560375235.2,286046998.6,N
1560375255.0,286047000.4,N
1560375255.9,286047000.4,N
1560375275.8,286047000.0,N
1560375295.6,286047000.6,N
1560375315.4,286046998.6,N
1560375335.2,286046998.3,N
1560375355.1,286047001.2,N
1560375356.0,286047001.2,N
1560375375.8,286047001.0,N
1560375395.6,286047000.6,N
1560375415.5,286047002.4,N
1560375435.3,286047000.1,N
1560375455.1,286047000.2,N
1560375475.9,286047002.7,N
1560375495.7,286047002.4,N
1560375515.5,286047002.6,N
1560375535.4,286047002.5,N
1560375555.2,286047005.3,N
1560375575.0,286047004.8,N
1560375575.9,286047004.8,N
1560375595.7,286047005.1,N
1560375615.6,286047005.3,N
1560375635.4,286047007.5,N
1560375655.3,286047009.2,Y
1560375675.1,286047006.8,P
1560375676.0,286047006.8,N
1560375695.8,286047007.1,N
1560375715.7,286047007.6,Y
1560375735.5,286047002.8,P
1560375755.3,286047003.8,N
1560375775.1,286047003.9,P
1560375795.9,286047004.1,Y
1560375815.7,286046996.5,P
1560375835.5,286046996.5,N
1560375855.4,286046998.2,N
1560375875.2,286047000.1,N
1560375895.0,286047002.5,N
1560375895.9,286047002.5,N
1560375915.8,286047002.3,N
1560375935.6,286047000.7,N
1560375955.4,286046998.1,N
1560375975.3,286046998.9,N
1560375995.1,286046998.7,N
1560375996.0,286046998.7,N
1560376015.8,286046997.2,N
1560376035.7,286046996.7,N
1560376055.5,286046999.5,N
1560376075.3,286046999.5,N
1560376095.1,286046998.5,N
1560376115.9,286047002.7,N
1560376135.7,286047004.4,N
1560376155.5,286047001.4,N
1560376175.4,286047001.6,N
1560376195.2,286047001.7,N
1560376215.0,286047000.1,N
1560376215.9,286047000.1,N
1560376235.8,286047002.6,N
1560376255.6,286047002.7,N
1560376275.4,286047002.1,N
1560376295.3,286047004.4,N
1560376315.1,286047002.9,N
1560376316.0,286047002.9,N
1560376335.8,286047003.1,N
1560376355.6,286047004.3,N
1560376375.5,286047003.1,N
1560376395.3,286047005.7,N
1560376415.1,286047003.2,N
1560376435.9,286047004.1,N
1560376455.7,286047004.2,N
1560376475.5,286047001.7,N
1560376495.4,286047004.1,N
1560376515.2,286047003.3,N
1560376535.0,286047005.3,N
1560376535.9,286047005.3,N
1560376555.8,286047004.7,N
1560376575.6,286047006.8,Y
1560376595.4,286047003.4,P
1560376615.3,286047003.6,P
1560376635.1,286047004.4,P
1560376636.0,286047004.4,Y
1560376655.8,286046998.1,P
1560376675.7,286047001.1,N
1560376695.5,286046998.1,N
1560376715.3,286047001.1,N
1560376735.2,286047002.4,N
1560376755.9,286047003.2,N
1560376775.7,286047001.3,N
1560376795.5,286047001.8,N
